Date String (YYYY-MM-DD hh:mm:ss) UTC,Instrument flags,absolute air pressure of the measurement (hPa),sample flow rate (lpm),inlet stack bypass flow (lpm),air temperature of the measurement (°C),ambient temperature measured by the external sensor (°C),aerosol sample conditioner tube jacket temperature (°C),OPC LED temperature (°C),internal box temperature (°C),relative humidity of the measurement (%),span deviation,mass concentration of particles derived from Lorenz-Mie calculation of OPC scattering (μg/m³),mass concentration of particles derived from Lorenz-Mie calculation of OPC scattering (μg/m³),mass concentration of particles derived from Lorenz-Mie calculation of OPC scattering (μg/m³)
DateTimeUTC,F1_M11,P_M11,Q1_M11,Q2_M11,T1_M11,T2_M11,T3_M11,T4_M11,T5_M11,U1_M11,ZSPAN_M11,X0_M11,X2_M11,X1_M11
2024-05-05 12:00:00,SystemResetWarning,0823.0,5.01,000.00,024.0,023.2,000.0,032.6,025.9,020.2,0000.0,0013.65,0004.50,0003.37
2024-05-05 12:01:00,SystemResetWarning,0823.0,5.01,000.00,024.0,023.2,000.0,032.6,025.9,020.2,0000.0,0013.34,0004.46,0003.33
2024-05-05 12:02:00,SystemResetWarning,0823.2,5.00,000.00,024.0,023.2,000.0,032.6,025.9,020.2,0000.0,0013.50,0004.45,0003.30
2024-05-05 12:03:00,SystemResetWarning,0822.9,5.00,000.00,024.0,023.2,000.0,032.6,025.9,020.3,0000.0,0013.42,0004.39,0003.27
2024-05-05 12:04:00,SystemResetWarning,0822.9,4.99,000.00,024.0,023.2,000.0,032.6,025.9,020.4,0000.0,0013.18,0004.32,0003.23
2024-05-05 12:05:00,SystemResetWarning,0822.9,5.02,000.00,024.0,023.2,000.0,032.6,025.8,020.4,0000.0,0013.37,0004.26,0003.21
2024-05-05 12:06:00,SystemResetWarning,0822.9,5.00,000.00,024.0,023.2,000.0,032.6,025.8,020.4,0000.0,0012.94,0004.20,0003.18
2024-05-05 12:07:00,SystemResetWarning,0822.9,4.99,000.00,024.0,023.2,000.0,032.6,025.8,020.3,0000.0,0011.17,0004.11,0003.18
2024-05-05 12:08:00,SystemResetWarning,0822.9,4.99,000.00,024.0,023.2,000.0,032.6,025.8,020.4,0000.0,0011.40,0004.14,0003.18
2024-05-05 12:09:00,SystemResetWarning,0822.9,5.00,000.00,024.0,023.2,000.0,032.6,025.8,020.4,0000.0,0011.51,0004.16,0003.19
2024-05-05 12:10:00,SystemResetWarning,0823.0,5.00,000.00,024.0,023.2,000.0,032.6,025.8,020.5,0000.0,0011.87,0004.13,0003.19
2024-05-05 12:11:00,SystemResetWarning,0823.1,5.00,000.00,024.0,023.2,000.0,032.6,025.8,020.5,0000.0,0012.16,0004.15,0003.20
2024-05-05 12:12:00,SystemResetWarning,0823.0,5.01,000.00,023.9,023.2,000.0,032.6,025.7,020.5,0000.0,0011.89,0004.19,0003.21
2024-05-05 12:13:00,SystemResetWarning,0823.0,5.00,000.00,023.9,023.1,000.0,032.5,025.7,020.6,0000.0,0012.32,0004.20,0003.21
2024-05-05 12:14:00,SystemResetWarning,0822.9,5.00,000.00,023.9,023.1,000.0,032.5,025.6,020.7,0000.0,0012.76,0004.24,0003.21
2024-05-05 12:15:00,SystemResetWarning,0822.9,5.00,000.00,023.9,023.1,000.0,032.5,025.6,020.8,0000.0,0013.05,0004.36,0003.22
2024-05-05 12:16:00,SystemResetWarning,0822.9,4.99,000.00,023.8,023.1,000.0,032.5,025.5,020.9,0000.0,0013.54,0004.45,0003.23
2024-05-05 12:17:00,SystemResetWarning,0822.8,4.99,000.00,023.8,023.0,000.0,032.5,025.5,021.0,0000.0,0013.11,0004.53,0003.26
2024-05-05 12:18:00,SystemResetWarning,0822.9,4.99,000.00,023.8,023.0,000.0,032.4,025.4,021.1,0000.0,0013.24,0004.58,0003.28
2024-05-05 12:19:00,SystemResetWarning,0822.9,5.00,000.00,023.7,023.0,000.0,032.4,025.4,021.3,0000.0,0012.93,0004.57,0003.30
2024-05-05 12:20:00,SystemResetWarning,0822.8,5.01,000.00,023.7,022.9,000.0,032.4,025.4,021.4,0000.0,0013.11,0004.59,0003.32
2024-05-05 12:21:00,SystemResetWarning,0822.8,5.01,000.00,023.7,022.9,000.0,032.4,025.4,021.3,0000.0,0012.99,0004.61,0003.33
2024-05-05 12:22:00,SystemResetWarning,0822.8,5.00,000.00,023.6,022.8,000.0,032.3,025.3,021.3,0000.0,0012.68,0004.60,0003.33
2024-05-05 12:23:00,SystemResetWarning,0822.8,5.00,000.00,023.6,022.8,000.0,032.3,025.2,021.2,0000.0,0013.16,0004.59,0003.33
2024-05-05 12:24:00,SystemResetWarning,0823.0,4.99,000.00,023.6,022.8,000.0,032.3,025.2,021.2,0000.0,0012.55,0004.54,0003.32
2024-05-05 12:25:00,SystemResetWarning,0823.2,5.01,000.00,023.6,022.8,000.0,032.3,025.3,021.3,0000.0,0013.11,0004.52,0003.32
2024-05-05 12:26:00,SystemResetWarning,0823.2,5.01,000.00,023.6,022.8,000.0,032.2,025.2,021.4,0000.0,0013.38,0004.44,0003.33
2024-05-05 12:27:00,SystemResetWarning,0822.8,5.00,000.00,023.6,022.8,000.0,032.2,025.2,021.3,0000.0,0013.10,0004.38,0003.33
2024-05-05 12:28:00,SystemResetWarning,0822.8,4.98,000.00,023.5,022.7,000.0,032.2,025.2,021.2,0000.0,0012.90,0004.30,0003.30
2024-05-05 12:29:00,SystemResetWarning,0822.7,5.00,000.00,023.5,022.7,000.0,032.2,025.2,021.1,0000.0,0012.97,0004.26,0003.27
2024-05-05 12:30:00,SystemResetWarning,0822.8,5.01,000.00,023.5,022.7,000.0,032.2,025.1,021.0,0000.0,0013.81,0004.23,0003.25
2024-05-05 12:31:00,SystemResetWarning,0822.8,4.99,000.00,023.5,022.7,000.0,032.1,025.1,020.7,0000.0,0013.62,0004.18,0003.22
2024-05-05 12:32:00,SystemResetWarning,0822.8,4.99,000.00,023.4,022.6,000.0,032.1,025.1,020.6,0000.0,0013.43,0004.19,0003.19
2024-05-05 12:33:00,SystemResetWarning,0822.7,5.01,000.00,023.4,022.6,000.0,032.1,025.0,020.5,0000.0,0013.60,0004.19,0003.18
2024-05-05 12:34:00,SystemResetWarning,0822.8,5.01,000.00,023.4,022.6,000.0,032.0,025.0,020.5,0000.0,0013.23,0004.15,0003.16
2024-05-05 12:35:00,SystemResetWarning,0822.7,5.00,000.00,023.4,022.6,000.0,032.0,025.0,020.5,0000.0,0013.69,0004.15,0003.14
2024-05-05 12:36:00,SystemResetWarning,0822.7,4.99,000.00,023.3,022.6,000.0,032.0,025.0,020.5,0000.0,0012.79,0004.12,0003.11
2024-05-05 12:37:00,SystemResetWarning,0822.8,4.99,000.00,023.3,022.6,000.0,032.0,024.9,020.7,0000.0,0012.30,0004.09,0003.07
2024-05-05 12:38:00,SystemResetWarning,0822.7,5.01,000.00,023.3,022.5,000.0,032.0,024.9,020.8,0000.0,0012.07,0004.09,0003.03
2024-05-05 12:39:00,SystemResetWarning,0822.7,5.00,000.00,023.3,022.5,000.0,031.9,024.9,021.1,0000.0,0012.01,0004.10,0002.99
2024-05-05 12:40:00,SystemResetWarning,0823.0,5.00,000.00,023.3,022.5,000.0,031.9,025.0,021.1,0000.0,0012.42,0004.15,0003.00
2024-05-05 12:41:00,SystemResetWarning,0822.7,4.99,000.00,023.3,022.5,000.0,031.9,025.0,021.2,0000.0,0012.69,0004.17,0002.99
2024-05-05 12:42:00,SystemResetWarning,0822.7,5.00,000.00,023.3,022.5,000.0,031.9,025.0,021.1,0000.0,0013.15,0004.20,0002.99
2024-05-05 12:43:00,SystemResetWarning,0822.8,4.99,000.00,023.3,022.5,000.0,031.9,025.0,020.9,0000.0,0013.66,0004.18,0002.98
2024-05-05 12:44:00,SystemResetWarning,0822.7,5.00,000.00,023.3,022.5,000.0,031.9,025.1,021.0,0000.0,0014.43,0004.17,0002.98
2024-05-05 12:45:00,SystemResetWarning,0822.8,5.00,000.00,023.3,022.5,000.0,031.9,025.1,020.9,0000.0,0014.42,0004.18,0003.00
2024-05-05 12:46:00,SystemResetWarning,0822.6,5.00,000.00,023.3,022.5,000.0,031.9,025.1,020.7,0000.0,0013.77,0004.16,0002.99
2024-05-05 12:47:00,SystemResetWarning,0822.9,5.00,000.00,023.3,022.6,000.0,031.9,025.1,020.6,0000.0,0013.70,0004.13,0002.99
2024-05-05 12:48:00,SystemResetWarning,0822.7,5.00,000.00,023.3,022.6,000.0,031.9,025.0,020.6,0000.0,0013.69,0004.12,0002.98
2024-05-05 12:49:00,SystemResetWarning,0822.6,5.00,000.00,023.3,022.5,000.0,031.9,025.0,020.8,0000.0,0013.43,0004.15,0002.98
2024-05-05 12:50:00,SystemResetWarning,0823.0,5.00,000.00,023.3,022.6,000.0,031.9,025.1,021.1,0000.0,0013.11,0004.13,0002.98
2024-05-05 12:51:00,SystemResetWarning,0822.8,5.00,000.00,023.3,022.6,000.0,031.9,025.1,021.2,0000.0,0012.02,0004.08,0002.96
2024-05-05 12:52:00,SystemResetWarning,0822.6,5.00,000.00,023.3,022.6,000.0,031.9,025.1,021.2,0000.0,0011.40,0004.07,0002.96
2024-05-05 12:53:00,SystemResetWarning,0822.8,5.00,000.00,023.3,022.6,000.0,031.9,025.1,020.9,0000.0,0011.42,0004.03,0002.95
2024-05-05 12:54:00,SystemResetWarning,0822.6,5.00,000.00,023.3,022.6,000.0,031.9,025.1,021.0,0000.0,0011.06,0004.05,0002.95
2024-05-05 12:55:00,SystemResetWarning,0822.7,4.99,000.00,023.3,022.6,000.0,031.9,025.1,021.0,0000.0,0010.63,0004.06,0002.94
2024-05-05 12:56:00,SystemResetWarning,0822.6,4.99,000.00,023.3,022.6,000.0,031.9,025.1,021.3,0000.0,0010.13,0004.04,0002.91
2024-05-05 12:57:00,SystemResetWarning,0822.6,5.01,000.00,023.3,022.6,000.0,031.9,025.1,020.9,0000.0,0010.18,0004.05,0002.91
2024-05-05 12:58:00,SystemResetWarning,0822.6,4.99,000.00,023.3,022.6,000.0,031.9,025.1,020.8,0000.0,0010.20,0004.08,0002.94
2024-05-05 12:59:00,SystemResetWarning,0822.6,5.00,000.00,023.3,022.6,000.0,031.9,025.1,021.0,0000.0,0010.82,0004.10,0002.96
